Date,TemperatureHighF,TemperatureAvgF,TemperatureLowF,DewpointHighF,DewpointAvgF,DewpointLowF,HumidityHigh,HumidityAvg,HumidityLow,PressureMaxIn,PressureMinIn,WindSpeedMaxMPH,WindSpeedAvgMPH,GustSpeedMaxMPH,PrecipitationSumIn
2013-8-1,89.4,74.1,65.6,71.4,65.6,60.9,87,76,51,29.72,29.57,5,0,5,0.00
2013-8-2,75.9,73.9,71.2,66.9,66.1,65.4,84,77,71,29.60,29.56,6,0,6,0.06
2013-8-3,74.4,74.4,74.4,68.6,68.6,68.6,82,82,82,29.72,29.72,0,0,0,0.00
2013-8-4,74.3,70.0,66.7,70.8,66.7,63.0,91,90,82,29.75,29.63,4,0,4,0.53
2013-8-5,87.6,79.8,69.4,77.0,73.2,66.9,93,81,69,29.66,29.44,6,0,6,0.00
2013-8-6,89.9,82.7,74.1,78.0,74.4,70.7,89,76,67,29.50,29.40,8,0,8,0.00
2013-8-7,85.8,76.6,69.9,75.7,70.8,65.8,92,83,70,29.56,29.40,10,0,10,0.42
2013-8-8,73.5,71.1,68.1,67.7,65.3,63.1,86,82,79,29.62,29.46,5,0,5,0.00
2013-8-9,73.5,69.7,66.7,68.9,64.8,62.0,87,85,78,29.71,29.58,1,0,1,0.08
2013-8-10,86.9,78.3,64.2,69.6,66.3,61.6,91,68,52,29.79,29.69,8,0,8,0.00
2013-8-11,87.6,74.2,0.0,71.2,64.0,-6.3,82,71,55,29.74,29.62,6,0,6,0.00
2013-8-12,83.4,73.6,68.1,70.4,67.2,64.3,90,81,63,29.66,29.57,9,1,9,0.35
2013-8-13,83.3,76.5,67.6,66.3,63.3,60.3,86,65,51,29.73,29.66,8,0,8,0.00
2013-8-14,82.2,74.2,61.8,62.7,60.0,57.1,85,63,51,29.79,29.70,6,0,6,0.00
2013-8-15,80.4,72.5,62.0,63.0,59.6,54.7,77,65,54,29.73,29.60,8,0,8,0.00
2013-8-16,81.5,72.2,63.1,61.9,58.1,54.1,73,62,51,29.76,29.71,6,0,6,0.00
2013-8-17,76.8,63.6,57.5,60.3,54.5,51.2,81,73,56,29.80,29.71,8,0,8,0.00
2013-8-18,85.2,73.8,60.6,65.8,60.3,53.0,77,64,51,29.77,29.67,7,0,7,0.00
2013-8-19,88.3,75.0,62.7,68.3,63.3,57.3,85,69,50,29.73,29.61,0,0,0,0.00
2013-8-20,91.0,77.9,67.1,70.2,65.1,61.0,81,66,49,29.66,29.60,8,0,8,0.00
2013-8-21,92.3,83.7,67.1,72.5,69.4,61.1,82,63,51,29.70,29.61,6,0,6,0.00
2013-8-22,91.9,83.7,69.6,73.8,70.7,64.1,83,66,54,29.71,29.62,6,0,6,0.00
2013-8-23,93.7,84.5,70.8,72.6,69.3,65.8,85,62,46,29.70,29.62,8,0,8,0.00
2013-8-24,93.3,83.5,72.8,75.0,70.4,65.5,81,66,52,29.75,29.65,1,0,1,0.00
2013-8-25,94.1,79.5,75.3,75.0,68.7,66.9,76,70,54,29.75,29.73,5,0,5,0.00
2013-8-26,93.7,93.6,93.5,73.4,73.3,73.2,52,52,52,29.69,29.68,0,0,0,0.00
2013-8-27,94.4,83.7,69.6,71.4,68.4,64.4,86,62,45,29.69,29.61,0,0,0,0.00
2013-8-28,95.1,82.5,68.3,73.7,69.1,62.5,86,65,48,29.67,29.61,0,0,0,0.00
2013-8-29,97.3,83.6,73.9,75.3,70.9,67.2,81,67,46,29.66,29.57,0,0,0,0.00
2013-8-30,101.6,88.5,73.9,74.6,71.6,68.1,82,59,38,29.59,29.45,0,0,0,0.00
2013-8-31,93.3,84.4,76.6,77.6,71.4,66.9,80,66,54,29.49,29.40,8,0,8,0.14